CW9928 Weather Reports


Display with metric or nautical units.
time (UTC)temp
F
wind
direction
speed
MPH
gust
MPH
rain 1hr
in
rain 24hr
in
rain mn
in
humidity
%
barometer
mb
20260906025033 65 54 0.0 0.0 0.00 0.00 0.00 88 1015.7
20260906024513 65 54 0.0 0.0 0.00 0.00 0.00 88 1015.7
20260906024057 65 54 0.0 0.0 0.00 0.00 0.00 87 1015.7
20260906023537 65 54 0.0 0.0 0.00 0.00 0.00 87 1015.7
20260906023017 66 54 0.0 0.0 0.00 0.00 0.00 87 1015.6
20260906022601 66 54 0.0 0.0 0.00 0.00 0.00 87 1015.6
20260906022042 66 54 0.0 0.0 0.00 0.00 0.00 86 1015.6
20260906021534 66 54 0.0 0.0 0.00 0.00 0.00 86 1015.6
20260906021002 66 54 0.0 0.0 0.00 0.00 0.00 85 1015.6
20260906020545 66 54 0.0 0.0 0.00 0.00 0.00 85 1015.6
20260906020007 66 54 0.0 0.0 0.00 0.00 0.00 85 1015.6
20260906015550 66 54 0.0 0.0 0.00 0.00 0.00 84 1015.6
20260906015031 66 54 0.0 0.0 0.00 0.00 0.00 84 1015.4
20260906014521 67 54 0.0 0.0 0.00 0.00 0.00 84 1015.4
20260906014104 67 54 0.0 0.0 0.00 0.00 0.00 84 1015.3
20260906013544 67 54 0.0 0.0 0.00 0.00 0.00 84 1015.4
20260906013035 67 54 0.0 0.0 0.00 0.00 0.00 84 1015.4
20260906012503 67 54 0.0 0.0 0.00 0.00 0.00 84 1015.4
20260906012049 67 54 0.0 0.0 0.00 0.00 0.00 84 1015.3
20260906011532 67 54 0.0 0.0 0.00 0.00 0.00 83 1015.4
20260906011009 67 54 0.0 0.0 0.00 0.00 0.00 83 1015.3
20260906010552 67 54 0.0 0.0 0.00 0.00 0.00 83 1015.2
20260906010017 67 54 0.0 0.0 0.00 0.00 0.00 83 1015.2
20260906005558 67 54 0.0 0.0 0.00 0.00 0.00 83 1015.1
20260906005038 67 54 0.0 0.0 0.00 0.00 0.00 83 1015.1
20260906004517 67 54 0.0 0.0 0.00 0.00 0.00 82 1015.1
20260906004105 67 54 0.0 0.0 0.00 0.00 0.00 82 1015.0
20260906003542 67 54 0.0 0.0 0.00 0.00 0.00 82 1015.0
20260906003023 67 54 0.0 0.0 0.00 0.00 0.00 81 1015.0
20260906002502 67 54 0.0 0.0 0.00 0.00 0.00 81 1015.0
20260906002048 68 54 0.0 0.0 0.00 0.00 0.00 80 1015.0
20260906001525 68 54 0.0 0.0 0.00 0.00 0.00 80 1015.1
20260906001005 68 54 0.0 0.0 0.00 0.00 0.00 80 1015.0
20260906000550 68 54 0.0 0.0 0.00 0.00 0.00 79 1014.9
20260906000012 69 54 0.0 0.0 0.00 0.00 0.00 78 1014.9
20260905235555 69 54 0.0 0.0 0.00 0.00 0.00 78 1014.9
20260905235036 69 54 0.0 0.0 0.00 0.00 0.00 77 1014.9
20260905234516 69 54 0.0 0.0 0.00 0.00 0.00 77 1015.0
20260905234100 70 54 0.0 0.0 0.00 0.00 0.00 76 1015.1
20260905233541 70 54 0.0 0.0 0.00 0.00 0.00 75 1015.2
20260905233021 71 54 0.0 0.0 0.00 0.00 0.00 74 1015.2
20260905232604 71 54 0.0 0.0 0.00 0.00 0.00 73 1015.2
20260905232044 71 54 0.0 0.0 0.00 0.00 0.00 73 1015.0
20260905231524 72 54 0.0 0.0 0.00 0.00 0.00 72 1015.1
20260905231003 72 54 0.0 0.0 0.00 0.00 0.00 71 1015.0
20260905230547 72 54 0.0 0.0 0.00 0.00 0.00 70 1015.1
20260905230010 73 54 0.0 0.0 0.00 0.00 0.00 68 1015.0
20260905225553 73 54 0.0 0.0 0.00 0.00 0.00 68 1015.0
20260905225033 73 54 0.0 2.0 0.00 0.00 0.00 67 1015.1
20260905224517 73 54 0.0 2.0 0.00 0.00 0.00 65 1015.1
20260905224059 73 54 0.0 1.0 0.00 0.00 0.00 65 1015.1
20260905223537 73 54 0.0 0.0 0.00 0.00 0.00 64 1015.1
20260905223018 73 54 0.0 0.0 0.00 0.00 0.00 63 1015.1
20260905222602 73 54 0.0 1.0 0.00 0.00 0.00 63 1015.1
20260905222041 73 54 0.0 1.0 0.00 0.00 0.00 64 1015.0
20260905221522 73 54 0.0 5.0 0.00 0.00 0.00 63 1015.0
20260905221002 73 54 0.0 5.0 0.00 0.00 0.00 63 1015.0
20260905220545 73 53 0.0 4.0 0.00 0.00 0.00 62 1015.0
20260905220007 73 53 0.0 4.0 0.00 0.00 0.00 61 1015.0
20260905215551 73 52 0.0 4.0 0.00 0.00 0.00 61 1015.1
20260905215032 73 53 0.0 5.0 0.00 0.00 0.00 60 1015.1
20260905214510 73 53 0.0 5.0 0.00 0.00 0.00 61 1015.0
20260905214052 74 50 0.0 3.0 0.00 0.00 0.00 61 1014.8
20260905213533 74 50 0.0 5.0 0.00 0.00 0.00 60 1014.8
20260905213012 74 46 0.0 5.0 0.00 0.00 0.00 60 1014.9
20260905212557 74 46 0.0 6.0 0.00 0.00 0.00 59 1014.9
20260905212033 74 42 0.0 6.0 0.00 0.00 0.00 60 1014.7
20260905211513 74 42 1.0 5.0 0.00 0.00 0.00 59 1014.7
20260905211100 74 44 0.0 4.0 0.00 0.00 0.00 59 1014.7
20260905210537 74 44 0.0 4.0 0.00 0.00 0.00 60 1014.7
20260905210123 74 44 0.0 4.0 0.00 0.00 0.00 59 1014.7
20260905205543 74 38 0.0 6.0 0.00 0.00 0.00 59 1014.8
20260905205024 74 37 2.0 6.0 0.00 0.00 0.00 59 1014.7
20260905204503 74 24 1.0 4.0 0.00 0.00 0.00 59 1014.7
20260905204047 74 22 0.0 4.0 0.00 0.00 0.00 59 1014.7
20260905203528 74 21 1.0 6.0 0.00 0.00 0.00 58 1014.8
20260905203008 74 358 2.0 6.0 0.00 0.00 0.00 58 1014.7
20260905202551 74 39 0.0 6.0 0.00 0.00 0.00 58 1014.7
20260905202034 75 47 0.0 5.0 0.00 0.00 0.00 59 1014.7
20260905201518 75 38 1.0 4.0 0.00 0.00 0.00 56 1014.8
20260905201055 75 49 0.0 4.0 0.00 0.00 0.00 57 1014.9
20260905200538 75 53 1.0 7.0 0.00 0.00 0.00 56 1014.9
20260905200119 75 55 1.0 7.0 0.00 0.00 0.00 58 1014.9
20260905195543 76 48 0.0 5.0 0.00 0.00 0.00 60 1014.8
20260905195016 76 48 1.0 5.0 0.00 0.00 0.00 58 1015.0
20260905194559 76 83 0.0 4.0 0.00 0.00 0.00 59 1014.9
20260905194039 76 83 0.0 4.0 0.00 0.00 0.00 59 1014.9
20260905193526 76 83 0.0 5.0 0.00 0.00 0.00 57 1014.9
20260905193104 76 71 1.0 5.0 0.00 0.00 0.00 58 1015.1
20260905192543 76 111 1.0 4.0 0.00 0.00 0.00 60 1015.1
20260905192023 75 142 0.0 7.0 0.00 0.00 0.00 61 1015.0
20260905191503 75 64 2.0 7.0 0.00 0.00 0.00 61 1015.0
20260905191047 75 48 0.0 6.0 0.00 0.00 0.00 64 1015.0
20260905190527 75 48 1.0 6.0 0.00 0.00 0.00 60 1015.1
20260905190111 75 30 0.0 5.0 0.00 0.00 0.00 65 1015.2
20260905185534 75 329 1.0 4.0 0.00 0.00 0.00 64 1015.3
20260905185013 75 320 0.0 5.0 0.00 0.00 0.00 66 1015.4
20260905184558 75 292 0.0 6.0 0.00 0.00 0.00 66 1015.4
20260905184038 74 96 0.0 5.0 0.00 0.00 0.00 65 1015.3
20260905183521 74 356 0.0 5.0 0.00 0.00 0.00 67 1015.4
20260905183118 74 356 0.0 5.0 0.00 0.00 0.00 67 1015.4
20260905182541 74 56 0.0 6.0 0.00 0.00 0.00 68 1015.4
20260905182021 74 51 2.0 6.0 0.00 0.00 0.00 67 1015.4
20260905181502 74 60 1.0 8.0 0.00 0.00 0.00 68 1015.3
20260905181045 73 58 3.0 8.0 0.00 0.00 0.00 69 1015.2
20260905180526 73 90 0.0 6.0 0.00 0.00 0.00 70 1015.2
20260905180109 73 48 1.0 7.0 0.00 0.00 0.00 70 1015.1
20260905175531 73 46 2.0 7.0 0.00 0.00 0.00 69 1015.0
20260905175014 73 52 0.0 5.0 0.00 0.00 0.00 70 1015.1
20260905174555 73 308 1.0 5.0 0.00 0.00 0.00 71 1015.0
20260905174035 72 331 1.0 6.0 0.00 0.00 0.00 71 1015.2
20260905173515 72 282 0.0 6.0 0.00 0.00 0.00 72 1015.1
20260905173059 72 291 0.0 6.0 0.00 0.00 0.00 71 1015.1
20260905172536 72 299 1.0 7.0 0.00 0.00 0.00 70 1015.2
20260905172016 72 65 1.0 7.0 0.00 0.00 0.00 73 1015.2
20260905171601 72 17 1.0 6.0 0.00 0.00 0.00 72 1015.2
20260905171040 72 289 2.0 6.0 0.00 0.00 0.00 73 1015.1
20260905170520 72 43 0.0 5.0 0.00 0.00 0.00 72 1015.0
20260905170105 72 34 1.0 5.0 0.00 0.00 0.00 74 1015.0
20260905165526 72 60 0.0 6.0 0.00 0.00 0.00 73 1015.0
20260905165006 72 21 0.0 5.0 0.00 0.00 0.00 72 1015.0
20260905164552 72 17 1.0 5.0 0.00 0.00 0.00 71 1015.1
20260905164029 72 63 0.0 4.0 0.00 0.00 0.00 73 1015.2
20260905163510 72 63 0.0 5.0 0.00 0.00 0.00 72 1015.2
20260905163056 72 321 1.0 5.0 0.00 0.00 0.00 74 1015.3
20260905162534 72 56 0.0 7.0 0.00 0.00 0.00 74 1015.3
20260905162014 72 48 0.0 2.0 0.00 0.00 0.00 73 1015.3
20260905161558 71 47 0.0 4.0 0.00 0.00 0.00 75 1015.3
20260905161038 71 48 1.0 8.0 0.00 0.00 0.00 74 1015.3
20260905160518 71 38 1.0 8.0 0.00 0.00 0.00 74 1015.3
20260905155526 71 58 1.0 5.0 0.00 0.00 0.00 74 1015.3
20260905155004 71 281 2.0 6.0 0.00 0.00 0.00 74 1015.2
20260905154549 71 67 2.0 6.0 0.00 0.00 0.00 74 1015.2
20260905154030 71 37 1.0 7.0 0.00 0.00 0.00 74 1015.2
20260905153508 70 90 2.0 8.0 0.00 0.00 0.00 74 1015.1
20260905153105 70 90 2.0 8.0 0.00 0.00 0.00 75 1015.2
20260905152533 70 61 2.0 6.0 0.00 0.00 0.00 76 1015.3
20260905152012 70 69 1.0 6.0 0.00 0.00 0.00 78 1015.4
20260905151559 70 69 1.0 6.0 0.00 0.00 0.00 79 1015.4
20260905151035 70 71 1.0 6.0 0.00 0.00 0.00 78 1015.4
20260905150518 70 88 0.0 8.0 0.00 0.00 0.00 78 1015.4
20260905150100 70 88 1.0 8.0 0.00 0.00 0.00 77 1015.4
20260905145522 70 17 2.0 8.0 0.00 0.00 0.00 78 1015.4
20260905145104 70 52 0.0 7.0 0.00 0.00 0.00 79 1015.4
20260905144544 70 356 1.0 4.0 0.00 0.00 0.00 81 1015.3
20260905144025 70 357 0.0 6.0 0.00 0.00 0.00 80 1015.3
20260905143506 69 296 0.0 7.0 0.00 0.00 0.00 81 1015.4
20260905143048 69 58 2.0 6.0 0.00 0.00 0.00 80 1015.4
20260905142528 69 65 0.0 6.0 0.00 0.00 0.00 81 1015.4
20260905142009 69 65 1.0 6.0 0.00 0.00 0.00 81 1015.3
20260905141601 69 63 0.0 4.0 0.00 0.00 0.00 82 1015.4
20260905141035 68 63 0.0 5.0 0.00 0.00 0.00 82 1015.3
20260905140513 68 68 2.0 6.0 0.00 0.00 0.00 82 1015.4
20260905140105 68 68 3.0 6.0 0.00 0.00 0.00 83 1015.4
20260905135518 68 69 1.0 5.0 0.00 0.00 0.00 84 1015.4
20260905135102 67 69 0.0 5.0 0.00 0.00 0.00 85 1015.3
20260905134542 67 70 1.0 5.0 0.00 0.00 0.00 85 1015.3
20260905134022 67 70 0.0 5.0 0.00 0.00 0.00 86 1015.3
20260905133502 66 70 1.0 6.0 0.00 0.00 0.00 88 1015.3
20260905133046 66 71 2.0 6.0 0.00 0.00 0.00 90 1015.5
20260905132526 66 355 0.0 2.0 0.00 0.00 0.00 91 1015.6
20260905132010 65 355 0.0 5.0 0.00 0.00 0.00 92 1015.5
20260905131609 65 355 2.0 5.0 0.00 0.00 0.00 92 1015.5
20260905131030 65 321 0.0 5.0 0.00 0.00 0.00 94 1015.5
20260905130513 64 300 0.0 2.0 0.00 0.00 0.00 94 1015.5
20260905130054 64 300 0.0 4.0 0.00 0.00 0.00 95 1015.5
20260905125517 64 300 0.0 4.0 0.00 0.00 0.00 95 1015.7
20260905125100 63 299 0.0 0.0 0.00 0.00 0.00 95 1015.8
20260905124539 63 299 0.0 0.0 0.00 0.00 0.00 95 1015.8
20260905124023 63 299 0.0 0.0 0.00 0.00 0.00 95 1015.8
20260905123606 63 299 0.0 0.0 0.00 0.00 0.00 95 1015.8
20260905123043 63 299 0.0 0.0 0.00 0.00 0.00 95 1015.8
20260905122524 63 299 0.0 0.0 0.00 0.00 0.00 95 1015.7
20260905122004 62 299 0.0 0.0 0.00 0.00 0.00 95 1015.8
20260905121548 62 299 0.0 0.0 0.00 0.00 0.00 95 1015.8
20260905121028 62 299 0.0 0.0 0.00 0.00 0.00 95 1015.8
20260905120508 61 299 0.0 0.0 0.00 0.00 0.00 95 1015.8
20260905120052 61 299 0.0 0.0 0.00 0.00 0.00 95 1015.7
20260905115515 61 299 0.0 0.0 0.00 0.00 0.00 95 1015.8
20260905115059 61 299 0.0 0.0 0.00 0.00 0.00 95 1015.7
20260905114545 61 299 0.0 0.0 0.00 0.00 0.00 95 1015.6
20260905114019 60 299 0.0 0.0 0.00 0.00 0.00 95 1015.5
20260905113602 60 299 0.0 0.0 0.00 0.00 0.00 95 1015.4
20260905113043 60 299 0.0 0.0 0.00 0.00 0.00 94 1015.2
20260905112523 60 299 0.0 0.0 0.00 0.00 0.00 94 1015.3
20260905112003 60 299 0.0 0.0 0.00 0.00 0.00 94 1015.2
20260905111546 60 299 0.0 0.0 0.00 0.00 0.00 94 1014.9
20260905111026 60 299 0.0 0.0 0.00 0.00 0.00 94 1014.9
20260905110505 60 299 0.0 0.0 0.00 0.00 0.00 94 1014.9
20260905110050 60 299 0.0 0.0 0.00 0.00 0.00 94 1014.9
20260905105512 60 299 0.0 0.0 0.00 0.00 0.00 94 1014.9
20260905105056 60 299 0.0 0.0 0.00 0.00 0.00 94 1014.9
20260905104539 61 299 0.0 0.0 0.00 0.00 0.00 94 1014.9
20260905104016 61 299 0.0 0.0 0.00 0.00 0.00 94 1014.8
20260905103600 61 299 0.0 0.0 0.00 0.00 0.00 94 1014.9
20260905103040 61 299 0.0 0.0 0.00 0.00 0.00 94 1014.8
20260905102520 61 299 0.0 0.0 0.00 0.00 0.00 94 1014.9
20260905102104 61 299 0.0 0.0 0.00 0.00 0.00 94 1014.8
20260905101544 61 299 0.0 0.0 0.00 0.00 0.00 94 1014.9
20260905101023 61 299 0.0 0.0 0.00 0.00 0.00 94 1015.0
20260905100504 61 299 0.0 0.0 0.00 0.00 0.00 94 1014.8
20260905095511 61 299 0.0 0.0 0.00 0.00 0.00 94 1014.7
20260905095054 61 299 0.0 0.0 0.00 0.00 0.00 94 1014.7
20260905094533 61 299 0.0 0.0 0.00 0.00 0.00 94 1014.6
20260905094015 61 299 0.0 0.0 0.00 0.00 0.00 94 1014.6
20260905093558 61 299 0.0 0.0 0.00 0.00 0.00 94 1014.7
20260905093040 61 299 0.0 0.0 0.00 0.00 0.00 94 1014.7
20260905092517 61 299 0.0 0.0 0.00 0.00 0.00 94 1014.6
20260905092101 61 299 0.0 0.0 0.00 0.00 0.00 94 1014.5
20260905091544 62 299 0.0 0.0 0.00 0.00 0.00 94 1014.4
20260905091021 62 299 0.0 0.0 0.00 0.00 0.00 94 1014.4
20260905090504 62 299 0.0 0.0 0.00 0.00 0.00 93 1014.3
20260905090104 62 299 0.0 0.0 0.00 0.00 0.00 93 1014.1
20260905085508 62 299 0.0 0.0 0.00 0.00 0.00 93 1014.0
20260905085056 62 299 0.0 0.0 0.00 0.00 0.00 93 1014.1
20260905084531 62 299 0.0 0.0 0.00 0.00 0.00 93 1014.2
20260905084017 62 299 0.0 0.0 0.00 0.00 0.00 93 1014.0
20260905083556 62 299 0.0 0.0 0.00 0.00 0.00 93 1014.1
20260905083045 62 299 0.0 0.0 0.00 0.00 0.00 93 1014.1
20260905082515 62 299 0.0 0.0 0.00 0.00 0.00 93 1014.1
20260905082100 62 299 0.0 0.0 0.00 0.00 0.00 93 1014.0
20260905081547 62 299 0.0 0.0 0.00 0.00 0.00 93 1014.0
20260905081021 62 299 0.0 0.0 0.00 0.00 0.00 93 1013.9
20260905080603 62 299 0.0 0.0 0.00 0.00 0.00 93 1013.9
20260905080050 62 299 0.0 0.0 0.00 0.00 0.00 92 1014.0
20260905075508 62 299 0.0 0.0 0.00 0.00 0.00 93 1014.1
20260905075049 63 299 0.0 0.0 0.00 0.00 0.00 93 1014.0
20260905074529 63 299 0.0 0.0 0.00 0.00 0.00 93 1014.0
20260905074008 63 299 0.0 0.0 0.00 0.00 0.00 92 1014.1
20260905073555 63 299 0.0 0.0 0.00 0.00 0.00 92 1014.2
20260905073036 63 299 0.0 0.0 0.00 0.00 0.00 92 1014.2
20260905072513 63 299 0.0 0.0 0.00 0.00 0.00 92 1014.1
20260905072056 63 299 0.0 0.0 0.00 0.00 0.00 92 1014.1
20260905071539 63 299 0.0 0.0 0.00 0.00 0.00 92 1014.1
20260905071018 64 299 0.0 0.0 0.00 0.00 0.00 92 1014.1
20260905070600 64 299 0.0 0.0 0.00 0.00 0.00 92 1014.1
20260905070041 64 299 0.0 0.0 0.00 0.00 0.00 92 1014.3
20260905065502 64 299 0.0 0.0 0.00 0.00 0.00 92 1014.4
20260905065048 64 299 0.0 0.0 0.00 0.00 0.00 92 1014.3
20260905064526 64 299 0.0 0.0 0.00 0.00 0.00 92 1014.4
20260905064008 64 299 0.0 0.0 0.00 0.00 0.00 92 1014.4
20260905063549 64 299 0.0 0.0 0.00 0.00 0.00 92 1014.5
20260905063030 64 299 0.0 0.0 0.00 0.00 0.00 92 1014.5
20260905062511 64 299 0.0 0.0 0.00 0.00 0.00 92 1014.5
20260905062053 64 299 0.0 0.0 0.00 0.00 0.00 92 1014.6
20260905061533 64 299 0.0 0.0 0.00 0.00 0.00 92 1014.7
20260905061014 64 299 0.0 0.0 0.00 0.00 0.00 92 1014.6
20260905060557 64 299 0.0 0.0 0.00 0.00 0.00 92 1014.6
20260905060019 64 299 0.0 0.0 0.00 0.00 0.00 92 1014.7
20260905055604 64 299 0.0 0.0 0.00 0.00 0.00 92 1014.7
20260905055042 64 299 0.0 0.0 0.00 0.00 0.00 92 1014.7
20260905054534 64 299 0.0 0.0 0.00 0.00 0.00 91 1014.7
20260905054005 64 299 0.0 0.0 0.00 0.00 0.00 91 1014.7
20260905053546 64 299 0.0 0.0 0.00 0.00 0.00 91 1014.8
20260905053032 64 299 0.0 0.0 0.00 0.00 0.00 91 1014.8
20260905052506 65 299 0.0 0.0 0.00 0.00 0.00 91 1014.8
20260905052051 65 299 0.0 0.0 0.00 0.00 0.00 91 1014.8
20260905051536 65 299 0.0 0.0 0.00 0.00 0.00 91 1014.8
20260905051010 65 299 0.0 0.0 0.00 0.00 0.00 91 1014.8
20260905050554 65 299 0.0 0.0 0.00 0.00 0.00 91 1014.8
20260905050035 65 299 0.0 0.0 0.00 0.00 0.00 91 1014.8
20260905045604 65 299 0.0 0.0 0.00 0.00 0.00 91 1014.9
20260905045040 65 299 0.0 0.0 0.00 0.00 0.00 91 1014.9
20260905044528 65 299 0.0 0.0 0.00 0.00 0.00 90 1014.7
20260905044104 66 299 0.0 0.0 0.00 0.00 0.00 90 1014.8
20260905043545 66 299 0.0 0.0 0.00 0.00 0.00 90 1014.8
20260905043025 66 299 0.0 0.0 0.00 0.00 0.00 90 1014.7
20260905042506 66 299 0.0 0.0 0.00 0.00 0.00 90 1014.9
20260905042048 66 299 0.0 0.0 0.00 0.00 0.00 90 1014.9
20260905041529 66 299 0.0 0.0 0.00 0.00 0.00 90 1014.8
20260905041008 66 299 0.0 0.0 0.00 0.00 0.00 90 1014.6
20260905040553 66 299 0.0 0.0 0.00 0.00 0.00 90 1014.7
20260905040034 66 299 0.0 0.0 0.00 0.00 0.00 90 1014.8
20260905035558 66 299 0.0 0.0 0.00 0.00 0.00 90 1014.8
20260905035038 66 299 0.0 0.0 0.00 0.00 0.00 90 1014.8
20260905034518 66 299 0.0 0.0 0.00 0.00 0.00 90 1014.6
20260905034105 67 299 0.0 0.0 0.00 0.00 0.00 90 1014.8
20260905033543 67 299 0.0 0.0 0.00 0.00 0.00 90 1014.6
20260905033022 67 299 0.0 0.0 0.00 0.00 0.00 90 1014.6
20260905032502 67 299 0.0 0.0 0.00 0.00 0.00 90 1014.5
20260905032046 67 299 0.0 0.0 0.00 0.00 0.00 90 1014.6
20260905031531 67 299 0.0 0.0 0.00 0.00 0.00 90 1014.6
20260905031006 67 299 0.0 0.0 0.00 0.00 0.00 89 1014.5
20260905030550 67 299 0.0 0.0 0.00 0.00 0.00 89 1014.5
20260905030032 67 299 0.0 0.0 0.00 0.00 0.00 89 1014.6
20260905025558 67 299 0.0 0.0 0.00 0.00 0.00 89 1014.5